sat.trackr.live / text

‹ back to catalog

THOR 7

NORAD 40613 · 2015-022A

PAYLOAD ACTIVE UNKNOWN

§ Identity

Operator
Country
NOR
Launch date
2015-04-26
Launch site
FRGUI
Launch vehicle
Mass (kg)
RCS (m²)
70.07

Purposes: comms

External: N2YO · Heavens-Above · Gunter

§ Orbital elements

Epoch: 2026-09-20T03:13:58.123200Z

Period
1,436.08 min
Inclination
0.0093°
Eccentricity
0.0002639
Mean motion
1.00272642 rev/d
Perigee alt
35,775.2 km
Apogee alt
35,797.5 km
Semi-major
42,164.5 km
B*
0.0000e+0
RAAN
179.9546°
Arg perigee
357.1085°
Mean anomaly
229.8186°
Rev number
4,176

§ Raw data

THOR 71 40613U 15022A   26263.13470050 -.00000012  00000+0  00000+0 0  99952 40613   0.0093 179.9546 0002639 357.1085 229.8186  1.00272642 41766

JSON: /api/v1/satellites/40613 · /tle

For live sub-satellite position, see the globe view (requires WebGL).

§ Visibility from observer

Set your observer location to see the next 7 days of passes ≥ 10°. The values pass through the URL so the page stays shareable.

No JS? Fill the form by hand. The geolocation button needs JavaScript.